sat.trackr.live / text

‹ back to catalog

STARLINK-11406 [DTC]

NORAD 63057 · 2025-035F

PAYLOAD ACTIVE UNKNOWN

§ Identity

Operator
Country
US
Launch date
2025-02-21
Launch site
AFETR
Launch vehicle
Mass (kg)
RCS (m²)

Purposes: comms

External: N2YO · Heavens-Above · Gunter

§ Orbital elements

Epoch: 2026-05-25T01:35:17.190816Z

Period
91.67 min
Inclination
42.9995°
Eccentricity
0.0001718
Mean motion
15.70820733 rev/d
Perigee alt
355.4 km
Apogee alt
357.7 km
Semi-major
6,734.7 km
B*
1.3351e-3
RAAN
274.9017°
Arg perigee
61.3559°
Mean anomaly
298.7481°
Rev number
7,311

§ Raw data

STARLINK-11406 [DTC]1 63057U 25035F   26145.06617119  .00174357  00000+0  13351-2 0  99962 63057  42.9995 274.9017 0001718  61.3559 298.7481 15.70820733 73114

JSON: /api/v1/satellites/63057 · /tle

For live sub-satellite position, see the globe view (requires WebGL).

§ Visibility from observer

Set your observer location to see the next 7 days of passes ≥ 10°. The values pass through the URL so the page stays shareable.

No JS? Fill the form by hand. The geolocation button needs JavaScript.